Weather in Bezozernoye

Russia / Amur Oblast     49°48′45″N   129°01′19″E
temp.,
°C
wind,
m/s
gust,
m/s
humid.,
%
clouds,
%
prec.,
mm/h
press.,
hPa
HPBL,
m
19 january, tue
tue1900:00−32wnw34930 0.0 102730
03:00−32w34910 0.0 102732
06:00−33wsw23880 0.0 102919
09:00−33sw33860 0.0 102826
12:00−26sw47840 0.0 1028302
15:00−22wsw410810 0.0 1027495
18:00−26sw45823 0.0 102883
21:00−27sw34831 0.0 102850
20 january, wed
wed2000:00−28s33880 0.0 102828
03:00−28sse33904 0.0 102732
06:00−27se449328 0.0 102670
09:00−26se469529 0.0 1025112
12:00−22se5894100 0.0 1022223
15:00−19ese5991100 0.0 1018277
18:00−19ese51094100 0.1 1017252
21:00−18se3598100 1.6 1016164
21 january, thu
thu2100:00−19wnw3697100 0.4 1018181
03:00−23nw599690 0.4 1020186
06:00−28nw4109414 0.0 1023209
09:00−31wnw36947 0.0 1026112
12:00−27wnw349146 0.0 1026243
15:00−26wnw238925 0.0 1025298
18:00−29nw22890 0.0 102719
21:00−30nnw12890 0.0 102819
22 january, fri
fri2200:00−31wnw12910 0.0 102819
03:00−31nw22930 0.0 102919
06:00−32wnw22996 0.0 102919
09:00−32wnw23963 0.0 103119
12:00−27wnw24920 0.0 1031221
15:00−25w12920 0.0 1030120
18:00−30nw11930 0.0 103219
21:00−30ese12850 0.0 103219
23 january, sat
sat2300:00−30ese23840 0.0 103219
03:00−30se34870 0.0 103241
06:00−30ese449427 0.0 103165
09:00−28ese469453 0.0 1030123
12:00−24ese469254 0.0 1028160
15:00−20ese469177 0.0 1025155
18:00−20ese3693100 0.0 1025102
21:00−20sse129299 0.0 102620